Find Early Bird

NORAD ID: 1317 Int'l Des: 1965-028 Owner: INTEL Country: I-INT operational
HEOCIRCULAR

Live Position

Loading 3D Globe...

About Early Bird

Description loading...

Upcoming Passes

Passes for default location (London). Set your location on the main map for personalized predictions.

Altitude History

Loading altitude history...

Two-Line Element Set

1 01317U 65028A 26104.24941328 -.00000082 00000-0 00000-0 0 9990
2 01317 7.0031 64.3738 0004949 159.8051 324.9736 1.00178380126530
Epoch: Apr 14, 2026 • Age: 14 hours

Current Status

Altitude 35833.6 km
Velocity 3.07 km/s
Sub-Earth Point -2.76°S, 103.11°W
Type other

Most Searched